Himsel Army Airfld, Nineveh,, IN

12:33 AM EDT on September 21, 2017 (GMT -0400)
Himsel Army Airfld, Nineveh,

Weather History for K1II - May, 2014

Change the Weather History Date:

Saturday, May 3, 2014

  Actual Average (KBAK) Record (KBAK)
Temperature  
Mean Temperature 56 °F -  
Max Temperature 68 °F 70 °F 84 °F (2001)
Min Temperature 44 °F 52 °F 39 °F (2002)
Degree Days  
Heating Degree Days 9    
Growing Degree Days 6 (Base 50)    
Moisture  
Dew Point 36 °F    
Average Humidity 49    
Maximum Humidity 81    
Minimum Humidity 24    
Precipitation  
Precipitation 0.00 in - - ()
Sea Level Pressure  
Sea Level Pressure 29.87 in    
Wind  
Wind Speed 8 mph (WSW)    
Max Wind Speed 20 mph    
Max Gust Speed 28 mph    
Visibility 10 miles    
Events      
Averages and records for this station are not official NWS values.
T = Trace of Precipitation, MM = Missing Value Source: NWS Daily Summary

Daily Weather History Graph

Daily Weather History Graph

Search for Another Location

Airport or City:

Trip Planner

Search our weather history database for the weather conditions in past years. The results will help you decide how hot, cold, wet, or windy it might be!

Date:

Astronomy

May. 03, 2014 Rise Set
Actual Time 6:43 AM EDT 8:39 PM EDT
Civil Twilight 6:13 AM EDT 9:08 PM EDT
Nautical Twilight 5:38 AM EDT 9:44 PM EDT
Astronomical Twilight 5:00 AM EDT 10:22 PM EDT
Moon 10:12 AM EDT (5/3) 12:00 AM EDT (5/3)
Length of Visible Light 14h 54m
Length of Day
13h 56m
Waxing Crescent, 19% of the Moon is Illuminated
May 3
Waxing Crescent
May 6
First Quarter
May 14
Full
May 21
Last Quarter
May 28
New

Hourly Weather History & Observations

Time (EDT) Temp. Windchill Dew Point Humidity Pressure Visibility Wind Dir Wind Speed Gust Speed Precip Events Conditions
12:15 AM 50.0 °F - 39.2 °F 66% 29.89 in 10.0 mi SSW 5.8 mph - N/A   Overcast
12:35 AM 46.4 °F 44.3 °F 39.2 °F 76% 29.89 in 10.0 mi South 4.6 mph - N/A   Mostly Cloudy
12:55 AM 46.4 °F 45.2 °F 39.2 °F 76% 29.89 in 10.0 mi SSW 3.5 mph - N/A   Scattered Clouds
1:15 AM 46.4 °F 44.3 °F 37.4 °F 71% 29.89 in 10.0 mi SSW 4.6 mph - N/A   Clear
1:35 AM 46.4 °F 45.2 °F 37.4 °F 71% 29.88 in 10.0 mi SSW 3.5 mph - N/A   Clear
1:55 AM 46.4 °F - 37.4 °F 71% 29.88 in 10.0 mi Calm Calm - N/A   Mostly Cloudy
2:15 AM 46.4 °F 45.2 °F 37.4 °F 71% 29.87 in 10.0 mi South 3.5 mph - N/A   Mostly Cloudy
2:35 AM 44.6 °F 43.1 °F 39.2 °F 81% 29.86 in 10.0 mi South 3.5 mph - N/A   Mostly Cloudy
2:55 AM 46.4 °F 44.3 °F 39.2 °F 76% 29.85 in 10.0 mi SSW 4.6 mph - N/A   Mostly Cloudy
3:15 AM 46.4 °F 44.3 °F 37.4 °F 71% 29.85 in 10.0 mi South 4.6 mph - N/A   Scattered Clouds
3:35 AM 46.4 °F 45.2 °F 37.4 °F 71% 29.85 in 10.0 mi South 3.5 mph - N/A   Mostly Cloudy
3:55 AM 44.6 °F 43.1 °F 37.4 °F 76% 29.84 in 10.0 mi SSE 3.5 mph - N/A   Scattered Clouds
4:15 AM 44.6 °F - 37.4 °F 76% 29.84 in 10.0 mi Calm Calm - N/A   Mostly Cloudy
4:35 AM 44.6 °F - 37.4 °F 76% 29.84 in 10.0 mi Calm Calm - N/A   Scattered Clouds
4:55 AM 46.4 °F 44.3 °F 37.4 °F 71% 29.83 in 10.0 mi SSW 4.6 mph - N/A   Scattered Clouds
5:15 AM 48.2 °F - 39.2 °F 71% 29.83 in 10.0 mi SSW 6.9 mph - N/A   Mostly Cloudy
5:35 AM 50.0 °F - 39.2 °F 66% 29.82 in 10.0 mi SSW 11.5 mph 17.3 mph N/A   Overcast
5:55 AM 50.0 °F - 39.2 °F 66% 29.81 in 10.0 mi SSW 11.5 mph 17.3 mph N/A   Overcast
6:15 AM 50.0 °F - 39.2 °F 66% 29.82 in 10.0 mi SW 8.1 mph - N/A   Overcast
6:35 AM 50.0 °F - 39.2 °F 66% 29.81 in 10.0 mi SSW 11.5 mph 17.3 mph N/A   Overcast
6:55 AM 50.0 °F - 39.2 °F 66% 29.82 in 10.0 mi SW 8.1 mph - N/A   Mostly Cloudy
7:15 AM 50.0 °F - 41.0 °F 71% 29.82 in 10.0 mi SSW 9.2 mph - N/A   Scattered Clouds
7:35 AM 50.0 °F - 41.0 °F 71% 29.82 in 10.0 mi SW 6.9 mph - N/A   Scattered Clouds
7:55 AM 51.8 °F - 41.0 °F 67% 29.82 in 10.0 mi SW 8.1 mph - N/A   Clear
8:15 AM 51.8 °F - 41.0 °F 67% 29.82 in 10.0 mi SW 8.1 mph - N/A   Scattered Clouds
8:35 AM 53.6 °F - 41.0 °F 62% 29.83 in 10.0 mi SW 9.2 mph 17.3 mph N/A   Scattered Clouds
8:55 AM 53.6 °F - 41.0 °F 62% 29.82 in 10.0 mi SW 9.2 mph 18.4 mph N/A   Scattered Clouds
9:15 AM 55.4 °F - 41.0 °F 58% 29.82 in 10.0 mi WSW 15.0 mph 19.6 mph N/A   Clear
9:35 AM 57.2 °F - 41.0 °F 55% 29.82 in 10.0 mi WSW 12.7 mph 23.0 mph N/A   Clear
9:55 AM 59.0 °F - 41.0 °F 51% 29.82 in 10.0 mi West 13.8 mph 18.4 mph N/A   Clear
10:15 AM 59.0 °F - 41.0 °F 51% 29.83 in 10.0 mi WSW 11.5 mph 20.7 mph N/A   Clear
10:35 AM 60.8 °F - 41.0 °F 48% 29.83 in 10.0 mi WNW 19.6 mph 25.3 mph N/A   Clear
10:55 AM 59.0 °F - 41.0 °F 51% 29.84 in 10.0 mi WNW 16.1 mph 25.3 mph N/A   Clear
11:15 AM 60.8 °F - 41.0 °F 48% 29.84 in 10.0 mi WNW 12.7 mph 24.2 mph N/A   Clear
11:35 AM 60.8 °F - 41.0 °F 48% 29.85 in 10.0 mi WNW 15.0 mph 25.3 mph N/A   Clear
11:55 AM 62.6 °F - 41.0 °F 45% 29.86 in 10.0 mi West 15.0 mph 23.0 mph N/A   Clear
12:15 PM 62.6 °F - 41.0 °F 45% 29.86 in 10.0 mi West 9.2 mph - N/A   Scattered Clouds
12:35 PM 62.6 °F - 37.4 °F 39% 29.87 in 10.0 mi WNW 15.0 mph 27.6 mph N/A   Scattered Clouds
12:55 PM 62.6 °F - 37.4 °F 39% 29.88 in 10.0 mi WNW 13.8 mph 27.6 mph N/A   Scattered Clouds
1:15 PM 62.6 °F - 35.6 °F 37% 29.88 in 10.0 mi WNW 19.6 mph 25.3 mph N/A   Scattered Clouds
1:35 PM 64.4 °F - 37.4 °F 37% 29.88 in 10.0 mi WNW 18.4 mph 25.3 mph N/A   Clear
1:55 PM 64.4 °F - 37.4 °F 37% 29.88 in 10.0 mi WNW 18.4 mph - N/A   Scattered Clouds
2:15 PM 64.4 °F - 35.6 °F 34% 29.89 in 10.0 mi WNW 12.7 mph 24.2 mph N/A   Clear
2:35 PM 64.4 °F - 35.6 °F 34% 29.88 in 10.0 mi NW 18.4 mph - N/A   Clear
2:55 PM 64.4 °F - 33.8 °F 32% 29.89 in 10.0 mi West 13.8 mph 19.6 mph N/A   Scattered Clouds
3:15 PM 66.2 °F - 33.8 °F 30% 29.88 in 10.0 mi WNW 8.1 mph 19.6 mph N/A   Clear
3:35 PM 68.0 °F - 32.0 °F 26% 29.88 in 10.0 mi West 13.8 mph 25.3 mph N/A   Clear
3:55 PM 66.2 °F - 32.0 °F 28% 29.89 in 10.0 mi WNW 15.0 mph 24.2 mph N/A   Clear
4:15 PM 68.0 °F - 32.0 °F 26% 29.88 in 10.0 mi WNW 12.7 mph 20.7 mph N/A   Clear
4:35 PM 68.0 °F - 32.0 °F 26% 29.88 in 10.0 mi WNW 17.3 mph 23.0 mph N/A   Clear
4:55 PM 68.0 °F - 32.0 °F 26% 29.88 in 10.0 mi NW 13.8 mph 18.4 mph N/A   Clear
5:15 PM 68.0 °F - 32.0 °F 26% 29.89 in 10.0 mi WNW 18.4 mph 25.3 mph N/A   Clear
5:35 PM 68.0 °F - 30.2 °F 24% 29.89 in 10.0 mi West 10.4 mph 20.7 mph N/A   Clear
5:55 PM 68.0 °F - 30.2 °F 24% 29.90 in 10.0 mi WNW 10.4 mph 17.3 mph N/A   Clear
6:15 PM 68.0 °F - 30.2 °F 24% 29.90 in 10.0 mi WNW 15.0 mph 18.4 mph N/A   Clear
6:35 PM 68.0 °F - 30.2 °F 24% 29.91 in 10.0 mi WNW 13.8 mph 20.7 mph N/A   Clear
6:55 PM 66.2 °F - 28.4 °F 24% 29.91 in 10.0 mi West 13.8 mph 18.4 mph N/A   Clear
7:15 PM 66.2 °F - 30.2 °F 26% 29.91 in 10.0 mi WNW 11.5 mph - N/A   Clear
7:35 PM 64.4 °F - 30.2 °F 28% 29.91 in 10.0 mi West 11.5 mph - N/A   Clear
7:55 PM 64.4 °F - 30.2 °F 28% 29.92 in 10.0 mi WNW 11.5 mph 17.3 mph N/A   Clear
8:15 PM 62.6 °F - 30.2 °F 30% 29.93 in 10.0 mi West 5.8 mph - N/A   Clear
8:35 PM 62.6 °F - 30.2 °F 30% 29.93 in 10.0 mi West 5.8 mph - N/A   Clear
8:55 PM 60.8 °F - 32.0 °F 34% 29.93 in 10.0 mi WSW 4.6 mph - N/A   Clear
9:15 PM 60.8 °F - 32.0 °F 34% 29.93 in 10.0 mi WSW 3.5 mph - N/A   Clear
9:35 PM 59.0 °F - 32.0 °F 36% 29.93 in 10.0 mi SW 4.6 mph - N/A   Clear
9:55 PM 59.0 °F - 32.0 °F 36% 29.94 in 10.0 mi SW 4.6 mph - N/A   Clear
10:15 PM 59.0 °F - 32.0 °F 36% 29.95 in 10.0 mi SW 4.6 mph - N/A   Clear
10:35 PM 55.4 °F - 32.0 °F 41% 29.95 in 10.0 mi SW 5.8 mph - N/A   Clear
10:55 PM 55.4 °F - 32.0 °F 41% 29.95 in 10.0 mi SSW 3.5 mph - N/A   Clear
11:15 PM 55.4 °F - 33.8 °F 44% 29.95 in 10.0 mi SW 4.6 mph - N/A   Clear
11:35 PM 53.6 °F - 35.6 °F 51% 29.95 in 10.0 mi SW 5.8 mph - N/A   Clear
11:55 PM 53.6 °F - 33.8 °F 47% 29.95 in 10.0 mi SW 3.5 mph - N/A   Clear